Weather History for Texarkana, AR

Change the Weather History Date:

Friday, April 5, 2013

  Actual Average Record
Temperature  
Mean Temperature 55 °F 61 °F  
Max Temperature 71 °F 73 °F 87 °F (1929)
Min Temperature 39 °F 49 °F 26 °F (1920)
Degree Days  
Heating Degree Days 10 5  
Month to date heating degree days 63 29  
Since 1 July heating degree days 2399 2523  
Cooling Degree Days 0 2  
Month to date cooling degree days 0 7  
Year to date cooling degree days 15 30  
Growing Degree Days 5 (Base 50)    
Moisture  
Dew Point 41 °F    
Average Humidity 65    
Maximum Humidity 100    
Minimum Humidity 30    
Precipitation  
Precipitation 0.00 in 0.12 in 1.70 in (1953)
Month to date precipitation 0.58 0.60  
Year to date precipitation 8.63 12.19  
Snow  
Snow 0.00 in - - ()
Month to date snowfall 0.0  
Since 1 July snowfall 2.1  
Snow Depth 0.00 in    
Sea Level Pressure  
Sea Level Pressure 30.15 in    
Wind  
Wind Speed 3 mph (South)    
Max Wind Speed 8 mph    
Max Gust Speed 10 mph    
Visibility 8 miles    
Events      
T = Trace of Precipitation, MM = Missing Value Source: NWS Daily Summary

Daily Weather History Graph

Daily Weather History Graph

Search for Another Location

Airport:

Trip Planner

Search our weather history database for the weather conditions in past years. The results will help you decide how hot, cold, wet, or windy it might be!

Date:

Astronomy

Apr. 05, 2013 Rise Set
Actual Time 6:57 AM CDT 7:39 PM CDT
Civil Twilight 6:32 AM CDT 8:04 PM CDT
Nautical Twilight 6:03 AM CDT 8:34 PM CDT
Astronomical Twilight 5:33 AM CDT 9:04 PM CDT
Moon 3:52 AM CDT (4/5) 3:16 PM CDT (4/5)
Length of Visible Light 13h 31m
Length of Day
12h 41m
Waning Crescent, 23% of the Moon is Illuminated
Apr 5
Waning Crescent
Apr 10
New
Apr 18
First Quarter
Apr 25
Full
May 2
Last Quarter

Hourly Weather History & Observations

Time (CDT) Temp. Windchill Dew Point Humidity Pressure Visibility Wind Dir Wind Speed Gust Speed Precip Events Conditions
12:53 AM 41.0 °F 38.0 °F 41.0 °F 100% 30.16 in 6.0 mi WSW 4.6 mph - N/A   Clear
1:53 AM 41.0 °F 38.0 °F 39.9 °F 96% 30.15 in 5.0 mi SW 4.6 mph - N/A   Clear
2:53 AM 39.9 °F 36.7 °F 39.9 °F 100% 30.14 in 3.0 mi SW 4.6 mph - N/A   Clear
3:53 AM 39.9 °F 37.8 °F 39.9 °F 100% 30.14 in 5.0 mi SW 3.5 mph - N/A   Clear
4:53 AM 39.0 °F - 37.9 °F 96% 30.15 in 5.0 mi Calm Calm - N/A   Clear
5:53 AM 39.0 °F 36.8 °F 37.9 °F 96% 30.17 in 5.0 mi West 3.5 mph - N/A   Clear
6:53 AM 39.9 °F - 39.0 °F 97% 30.18 in 8.0 mi Calm Calm - N/A   Clear
7:53 AM 44.1 °F - 41.0 °F 89% 30.20 in 9.0 mi Calm Calm - N/A   Clear
8:53 AM 48.9 °F - 43.0 °F 80% 30.21 in 8.0 mi NNE 3.5 mph - N/A   Clear
9:53 AM 54.0 °F - 45.0 °F 72% 30.22 in 10.0 mi Calm Calm - N/A   Clear
10:53 AM 59.0 °F - 41.0 °F 51% 30.22 in 10.0 mi Variable 3.5 mph - N/A   Clear
11:53 AM 62.1 °F - 37.0 °F 39% 30.22 in 10.0 mi Variable 3.5 mph - N/A   Clear
12:53 PM 63.0 °F - 37.9 °F 40% 30.20 in 10.0 mi Variable 4.6 mph - N/A   Clear
1:53 PM 64.9 °F - 37.0 °F 36% 30.17 in 10.0 mi Calm Calm - N/A   Clear
2:53 PM 68.0 °F - 36.0 °F 31% 30.14 in 10.0 mi Calm Calm - N/A   Clear
3:53 PM 69.1 °F - 42.1 °F 38% 30.11 in 10.0 mi Variable 4.6 mph - N/A   Clear
4:53 PM 71.1 °F - 39.0 °F 31% 30.09 in 10.0 mi Calm Calm - N/A   Clear
5:53 PM 69.1 °F - 43.0 °F 39% 30.09 in 10.0 mi NNE 6.9 mph - N/A   Clear
6:53 PM 66.0 °F - 46.0 °F 48% 30.08 in 10.0 mi Calm Calm - N/A   Clear
7:53 PM 59.0 °F - 44.1 °F 58% 30.09 in 10.0 mi ESE 4.6 mph - N/A   Clear
8:53 PM 59.0 °F - 44.1 °F 58% 30.09 in 10.0 mi SE 4.6 mph - N/A   Clear
9:53 PM 59.0 °F - 42.1 °F 53% 30.10 in 10.0 mi SSE 4.6 mph - N/A   Clear
10:53 PM 57.9 °F - 41.0 °F 53% 30.09 in 10.0 mi SE 4.6 mph - N/A   Clear
11:53 PM 57.0 °F - 42.1 °F 57% 30.08 in 10.0 mi SE 5.8 mph - N/A   Clear